When you browse on this site, cookies collect data to enhance your experience and personalize the content and advertising you see.
Visit our Privacy Policy to learn more. By continuing to use the site, you agree to this use of cookies and data.
  • In Schweiz
  • Länderverzeichnis
  • Für 7 Tage
  • Wassertemperatur
  • Satellitenkarten
  • Wetterkarte
  • Widgets
  • user-avatar
    Anmelden

    Stündliche Wetter Molepolole

    Heute, 21 November, Mittwoch

    Zeit Temperatur Niederschläge Wind Luftdruck Luftfeuchtigkeit
    00:00 +25°C° 0.1 mm 3 m/S 663 mmHg 52%
    01:00 +25°C° 0.1 mm 2 m/S 663 mmHg 54%
    02:00 +25°C° 0 mm 1 m/S 662 mmHg 51%
    03:00 +24°C° 0 mm 2 m/S 662 mmHg 50%
    04:00 +24°C° 0 mm 2 m/S 662 mmHg 49%
    05:00 +23°C° 0 mm 2 m/S 662 mmHg 48%
    06:00 +25°C° 0 mm 2 m/S 663 mmHg 40%
    07:00 +26°C° 0 mm 3 m/S 663 mmHg 33%
    08:00 +28°C° 0 mm 3 m/S 664 mmHg 25%
    09:00 +29°C° 0 mm 3 m/S 664 mmHg 22%
    10:00 +31°C° 0 mm 3 m/S 664 mmHg 18%
    11:00 +34°C° 0 mm 3 m/S 665 mmHg 14%
    12:00 +35°C° 0 mm 4 m/S 664 mmHg 12%
    13:00 +37°C° 0 mm 4 m/S 664 mmHg 10%
    14:00 +39°C° 0 mm 5 m/S 663 mmHg 8%
    15:00 +37°C° 0 mm 5 m/S 663 mmHg 8%
    16:00 +38°C° 0 mm 6 m/S 663 mmHg 7%
    17:00 +38°C° 0 mm 6 m/S 662 mmHg 6%
    18:00 +34°C° 0 mm 5 m/S 662 mmHg 7%
    19:00 +32°C° 0 mm 4 m/S 662 mmHg 8%
    20:00 +29°C° 0 mm 3 m/S 662 mmHg 8%
    21:00 +28°C° 0 mm 3 m/S 662 mmHg 9%
    22:00 +27°C° 0 mm 3 m/S 663 mmHg 9%
    23:00 +27°C° 0 mm 3 m/S 663 mmHg 10%

    Morgen, 22 November, Donnerstag

    Zeit Temperatur Niederschläge Wind Luftdruck Luftfeuchtigkeit
    00:00 +26°C° 0 mm 3 m/S 663 mmHg 11%
    01:00 +25°C° 0 mm 3 m/S 662 mmHg 13%
    02:00 +23°C° 0 mm 4 m/S 662 mmHg 14%
    03:00 +22°C° 0 mm 4 m/S 662 mmHg 15%
    04:00 +21°C° 0 mm 3 m/S 662 mmHg 17%
    05:00 +20°C° 0 mm 3 m/S 662 mmHg 18%
    06:00 +22°C° 0 mm 4 m/S 663 mmHg 16%
    07:00 +25°C° 0 mm 4 m/S 663 mmHg 15%
    08:00 +27°C° 0 mm 4 m/S 664 mmHg 13%
    09:00 +29°C° 0 mm 4 m/S 664 mmHg 12%
    10:00 +31°C° 0 mm 3 m/S 664 mmHg 11%
    11:00 +35°C° 0 mm 3 m/S 665 mmHg 9%
    12:00 +36°C° 0 mm 2 m/S 664 mmHg 8%
    13:00 +36°C° 0 mm 1 m/S 664 mmHg 7%
    14:00 +39°C° 0 mm 1 m/S 664 mmHg 6%
    15:00 +37°C° 0 mm 1 m/S 663 mmHg 6%
    16:00 +37°C° 0 mm 1 m/S 663 mmHg 5%
    17:00 +38°C° 0 mm 2 m/S 662 mmHg 5%
    18:00 +36°C° 0 mm 2 m/S 662 mmHg 5%
    19:00 +34°C° 0 mm 2 m/S 662 mmHg 6%
    20:00 +31°C° 0 mm 2 m/S 662 mmHg 7%
    21:00 +30°C° 0 mm 2 m/S 662 mmHg 11%
    22:00 +29°C° 0 mm 2 m/S 663 mmHg 15%
    23:00 +28°C° 0 mm 2 m/S 663 mmHg 19%

    übermorgen, 23 November, Freitag

    Zeit Temperatur Niederschläge Wind Luftdruck Luftfeuchtigkeit
    00:00 +27°C° 0 mm 3 m/S 663 mmHg 26%
    01:00 +27°C° 0 mm 4 m/S 663 mmHg 34%
    02:00 +26°C° 0 mm 5 m/S 663 mmHg 42%
    03:00 +25°C° 0 mm 5 m/S 663 mmHg 48%
    04:00 +23°C° 0 mm 6 m/S 663 mmHg 54%
    05:00 +22°C° 0 mm 6 m/S 663 mmHg 60%
    06:00 +23°C° 0 mm 6 m/S 664 mmHg 60%
    07:00 +23°C° 0 mm 7 m/S 665 mmHg 60%
    08:00 +23°C° 0 mm 7 m/S 665 mmHg 61%
    09:00 +24°C° 0 mm 7 m/S 665 mmHg 56%
    10:00 +26°C° 0 mm 7 m/S 666 mmHg 52%
    11:00 +27°C° 0 mm 7 m/S 666 mmHg 48%
    12:00 +29°C° 0 mm 7 m/S 666 mmHg 44%
    13:00 +30°C° 0 mm 6 m/S 666 mmHg 40%
    14:00 +33°C° 0 mm 5 m/S 665 mmHg 36%
    15:00 +32°C° 0 mm 5 m/S 665 mmHg 36%
    16:00 +32°C° 0 mm 5 m/S 664 mmHg 35%
    17:00 +32°C° 0 mm 4 m/S 664 mmHg 35%
    18:00 +30°C° 0.3 mm 5 m/S 664 mmHg 40%
    19:00 +28°C° 0.3 mm 5 m/S 664 mmHg 46%
    20:00 +26°C° 0.3 mm 5 m/S 664 mmHg 51%
    21:00 +26°C° 1.1 mm 5 m/S 665 mmHg 55%
    22:00 +25°C° 1.1 mm 4 m/S 665 mmHg 59%
    23:00 +23°C° 1.1 mm 4 m/S 666 mmHg 62%

    24 November, Samstag

    Zeit Temperatur Niederschläge Wind Luftdruck Luftfeuchtigkeit
    00:00 +23°C° 0 mm 4 m/S 665 mmHg 63%
    01:00 +23°C° 0 mm 4 m/S 664 mmHg 63%
    02:00 +23°C° 0 mm 4 m/S 664 mmHg 64%
    03:00 +22°C° 0 mm 4 m/S 664 mmHg 67%
    04:00 +21°C° 0 mm 3 m/S 664 mmHg 71%
    05:00 +21°C° 0 mm 3 m/S 663 mmHg 74%
    06:00 +22°C° 0 mm 4 m/S 664 mmHg 70%
    07:00 +23°C° 0 mm 4 m/S 665 mmHg 65%
    08:00 +25°C° 0 mm 5 m/S 666 mmHg 60%
    09:00 +27°C° 0 mm 5 m/S 666 mmHg 52%
    10:00 +29°C° 0 mm 5 m/S 667 mmHg 43%
    11:00 +32°C° 0 mm 5 m/S 667 mmHg 35%
    12:00 +33°C° 0 mm 4 m/S 666 mmHg 31%
    13:00 +34°C° 0 mm 3 m/S 666 mmHg 26%
    14:00 +36°C° 0 mm 3 m/S 665 mmHg 21%
    15:00 +36°C° 0 mm 3 m/S 665 mmHg 20%
    16:00 +36°C° 0 mm 3 m/S 664 mmHg 20%
    17:00 +35°C° 0 mm 3 m/S 664 mmHg 19%
    18:00 +34°C° 0 mm 3 m/S 664 mmHg 21%
    19:00 +33°C° 0 mm 3 m/S 664 mmHg 23%
    20:00 +31°C° 0 mm 3 m/S 664 mmHg 26%
    21:00 +30°C° 0 mm 3 m/S 664 mmHg 29%
    22:00 +29°C° 0 mm 3 m/S 664 mmHg 32%
    23:00 +28°C° 0 mm 3 m/S 664 mmHg 35%

    25 November, Sonntag

    Zeit Temperatur Niederschläge Wind Luftdruck Luftfeuchtigkeit
    00:00 +28°C° 0 mm 3 m/S 664 mmHg 37%
    01:00 +27°C° 0 mm 3 m/S 664 mmHg 40%
    02:00 +26°C° 0 mm 3 m/S 664 mmHg 43%
    03:00 +26°C° 0 mm 3 m/S 664 mmHg 46%
    04:00 +25°C° 0 mm 4 m/S 664 mmHg 50%
    05:00 +25°C° 0 mm 4 m/S 664 mmHg 53%
    06:00 +26°C° 0 mm 4 m/S 664 mmHg 49%
    07:00 +27°C° 0 mm 5 m/S 665 mmHg 45%
    08:00 +29°C° 0 mm 5 m/S 666 mmHg 41%
    09:00 +30°C° 0 mm 5 m/S 666 mmHg 36%
    10:00 +33°C° 0 mm 5 m/S 666 mmHg 31%
    11:00 +35°C° 0 mm 4 m/S 666 mmHg 27%
    12:00 +36°C° 0 mm 4 m/S 666 mmHg 25%
    13:00 +36°C° 0 mm 3 m/S 665 mmHg 23%
    14:00 +36°C° 0 mm 3 m/S 664 mmHg 21%
    15:00 +36°C° 0.1 mm 2 m/S 664 mmHg 22%
    16:00 +35°C° 0.1 mm 2 m/S 663 mmHg 23%
    17:00 +35°C° 0.1 mm 2 m/S 663 mmHg 24%
    18:00 +34°C° 0 mm 2 m/S 662 mmHg 26%
    19:00 +32°C° 0 mm 1 m/S 662 mmHg 28%
    20:00 +31°C° 0 mm 1 m/S 662 mmHg 30%
    21:00 +30°C° 0 mm 1 m/S 663 mmHg 32%
    22:00 +29°C° 0 mm 1 m/S 663 mmHg 33%
    23:00 +29°C° 0 mm 1 m/S 663 mmHg 34%

    26 November, Montag

    Zeit Temperatur Niederschläge Wind Luftdruck Luftfeuchtigkeit
    00:00 +28°C° 0.1 mm 1 m/S 663 mmHg 37%
    01:00 +28°C° 0.1 mm 2 m/S 662 mmHg 40%
    02:00 +27°C° 0.1 mm 3 m/S 662 mmHg 43%
    03:00 +26°C° 0 mm 3 m/S 662 mmHg 47%
    04:00 +26°C° 0 mm 4 m/S 662 mmHg 51%
    05:00 +25°C° 0 mm 4 m/S 662 mmHg 55%
    06:00 +26°C° 0 mm 5 m/S 662 mmHg 49%
    07:00 +28°C° 0 mm 5 m/S 663 mmHg 43%
    08:00 +29°C° 0 mm 6 m/S 664 mmHg 37%
    09:00 +32°C° 0 mm 5 m/S 664 mmHg 33%
    10:00 +34°C° 0 mm 5 m/S 664 mmHg 29%
    11:00 +36°C° 0 mm 5 m/S 664 mmHg 24%
    12:00 +36°C° 0 mm 5 m/S 663 mmHg 24%
    13:00 +37°C° 0 mm 4 m/S 662 mmHg 23%
    14:00 +37°C° 0 mm 4 m/S 662 mmHg 22%
    15:00 +37°C° 0 mm 4 m/S 661 mmHg 22%
    16:00 +37°C° 0 mm 3 m/S 661 mmHg 22%
    17:00 +37°C° 0 mm 3 m/S 660 mmHg 22%
    18:00 +35°C° 0.1 mm 4 m/S 660 mmHg 25%
    19:00 +34°C° 0.1 mm 4 m/S 660 mmHg 28%
    20:00 +32°C° 0.1 mm 4 m/S 660 mmHg 31%
    21:00 +31°C° 0.3 mm 3 m/S 661 mmHg 34%
    22:00 +30°C° 0.3 mm 3 m/S 661 mmHg 37%
    23:00 +29°C° 0.3 mm 3 m/S 661 mmHg 41%
    Mehr zeigen